User: anonymous   Login
Location: Castiglione Fibocchi
(43.5333°N, 11.7667°E)
Time: 02:18:18
(UTC+00:00)
Language:

Cosmos 2058 Rocket - Orbit

View from above orbital plane
View from above orbital plane
View from above satellite
View from above satellite

Ground track
Ground track

The orbit data is extracted from the following two-line orbital elements,

1 20466U 90010B   20302.74445812  .00000105  00000-0  10492-4 0  9996
2 20466  82.5000 302.0303 0018979 258.8874 101.0206 14.81396506659522
Epoch (UTC): 28 October 2020 17:52:01
Eccentricity: 0.0018979
inclination: 82.5000°
perigee height: 611 km
apogee height: 638 km
right ascension of ascending node: 302.0303°
argument of perigee: 258.8874°
revolutions per day: 14.81396506
mean anomaly at epoch: 101.0206°
orbit number at epoch: 65952

The dashed part of the orbit path shows where the satellite is in the earth's shadow,  

DLR